LUCH (OLYMP) DEB, 67745

Orbit data source: Space-Track

LUCH (OLYMP) DEB, 67745 is space debris in GEO originally from a launch on Sat, 27 Sep 2014 UTC launched from the Tyuratam Missile And Space Complex (TTMTR). Debris objects in space refer to the collection of defunct objects orbiting the Earth. Examples of debris include non-operational satellites, rocket bodies, and fragments generated from explosions, collisions, or faulty payload assembly.

Loading next visibility...
Identifier
67745, 2014-058D
Orbit
GEO
Country
Flag of CISCIS
Related business
Manufacturer
Resehetnev ISS
Mission
Spacecraft
Bus & Motor
Unknown
Mass
Unknown
Launch date (UTC)
2014-09-27 (12 years ago)
Launch vehicle
Unknown
Launch site
Tyuratam Missile And Space Complex (TTMTR)
Object type
Payload
Rocket body
Debris
Shape & HBR
Unknown shape, 1.1 m
Radar Cross Section
RCS unknown

Expand to show TLE details & history
Last TLE update: 8 hours ago

TLE from 8 hours ago
0 LUCH (OLYMP) DEB
1 67745U 14058D   26263.54022554 -.00000094  00000-0  00000-0 0  9997
2 67745   2.8072  88.6178 1668162  64.4451 312.3406  0.98158195  2289
Epoch: 2026-09-20T12:57Z
TLE epoch observation values (Epoch: 2026-09-20T12:57:55.486Z)
Latitude
-0°
Longitude
-104.8295°
Altitude
32,363.566 km
Speed
3.355 km/s
True Right ascension
05h 56m 20s
True Declination
0° 00' 00"
Sunlit
Object was in daylight at epoch
Visualization orbit readout
Latitude
Unknown
Longitude
Unknown
Altitude
Unknown
Speed
Unknown
Apparent Right ascension
Unknown
Apparent Declination
Unknown
Sunlit
N/A
Visualization observer readout
Local Sidereal Time
13:43:45
Azimuth
Unknown
Elevation
Unknown
Doppler factor
Unknown
Orbital elements
Apogee altitude
43,525.368 km
Perigee altitude
29,256.26 km
Semi-major axis
42,768.951 km
Eccentricity
0.16682
Inclination
2.8072°
RAAN
88.6178°
Arg. of periapsis
64.4451°
True anomaly
296.14228°
Mean anomaly
312.3406°
Eccentric anomaly
304.45993°
Mean motion
0.24539 °/min
Orbital period
1,467.07 mins
BSTAR
0
Loading maneuver chart data...
Computing Atmospheric mass density...
Loading historical data...
Loading historical data...
Loading historical data...
Loading historical data...
Loading historical data...
Loading historical data...
Loading historical data...
Other satellites on launch #58 in the year 2014 (2014-09-27 UTC)

Documentation

Showing up to 5 results
|